Location: Unspecified
(0.0000°N, 0.0000°E)
Time: 08:14:30
(UTC+00:00)

Altair 2 - Pass Details

Date: 18 October 2024
Orbit: 523 x 2152 km, 81.3° (Epoch: 05 November)

Event Time Altitude Azimuth Distance (km) Brightness Sun altitude
Rises 02:43:28 0° 16° (NNE) 5,654 11.5 -44.6°
Reaches altitude 10° 02:47:33 10° 25° (NNE) 4,653 11.1 -43.6°
Maximum altitude 02:58:00 34° 83° (E) 2,941 10.2 -41.0°
Drops below altitude 10° 03:06:57 10° 143° (SE) 3,990 11.1 -38.9°
Sets 03:10:05 0° 152° (SSE) 4,772 11.6 -38.1°
